Volver al catálogo

CZ-6A DEB

ActivoPO
NORAD 61084·DEBRIS·🇨🇳 China

Lanzado Aug 6, 2024 desde Taiyuan Satellite Launch Center

Loading…

Próximos Pases (próximas 24 horas)

TLE

ActualizadoSource: Space-Track

Época: Sep 14, 2026, 17:42 UTC

1 61084U 24140NA  26257.73815077  .00001824  00000-0  91101-3 0  9990
2 61084  88.9874 264.8280 0085610 296.7749  62.4698 14.14591775105802

Sigue CZ-6A DEB en tiempo real con AllMySat

Download on the App Store